Regional Weather Roundup
Issued by NWS Albany, NY

Home | Current Version | Previous Version | Graphics & Text | Print | Product List | Glossary On
Versions: 1 2 3 4 5 6 7 8 9 10 11 12 13 14 15 16 17 18 19 20 21 22 23 24 25 26 27
000
ASUS41 KALY 010910
RWRALY

NEW YORK STATE HOURLY WEATHER ROUNDUP
NATIONAL WEATHER SERVICE ALBANY NY
500 AM EDT SUN MAY 01 2016

NOTE: "FAIR" INDICATES FEW OR NO CLOUDS BELOW 12,000 FEET WITH NO
SIGNIFICANT WEATHER AND/OR NO OBSTRUCTIONS TO VISIBILITY.

NYZ032-033-038>043-046>054-057>066-NYZ062>081-082-084-011000-
EAST


CITY           SKY/WX    TMP DP  RH WIND       PRES   REMARKS
ALBANY         CLOUDY    51  35  54 S9        30.17R
GLENS FALLS    CLOUDY    45  33  63 CALM      30.17S
POUGHKEEPSIE   CLOUDY    50  37  61 CALM      30.19R
NEWBURGH       CLOUDY    48  39  71 CALM      30.20
MONTGOMERY     CLOUDY    48  40  73 S3        30.18R
WHITE PLAINS   CLOUDY    46  38  73 E3        30.19S
ISLIP          CLOUDY    47  38  71 E5        30.20F
NEW YORK CITY  CLOUDY    50  35  56 SE5       30.19F
CENTRAL PARK   CLOUDY    50  34  54 CALM      30.22S
$$

NYZ005>009-017-018-044>046-055-056-011000-
CENTRAL


CITY           SKY/WX    TMP DP  RH WIND       PRES   REMARKS
FULTON         LGT RAIN  51  45  79 CALM      30.09S
SYRACUSE       LGT RAIN  50  46  86 E7        30.09S
ROME           LGT RAIN  50  45  83 E6        30.13S
ELMIRA         RAIN      49  45  86 SE9       30.05F FOG
BINGHAMTON     LGT RAIN  44  44 100 SE10      30.08F FOG
MONTICELLO     CLOUDY    45  36  70 S5        30.18S
$$

NYZ026>034-041>043-087-011000-
NORTH


CITY           SKY/WX    TMP DP  RH WIND       PRES   REMARKS
WATERTOWN      LGT RAIN  48  35  60 E5        30.10S
FORT DRUM      NOT AVBL
MASSENA        MOCLDY    47  21  35 NE8       30.16F
SARANAC LAKE   CLOUDY    40  16  37 CALM      30.13S
PLATTSBURGH    MOCLDY    39  28  64 CALM      30.17S
$$

NYZ001>004-010>016-019>021-085-011000-
WEST


CITY           SKY/WX    TMP DP  RH WIND       PRES   REMARKS
NIAGARA FALLS  LGT RAIN  49  45  86 E10       29.98F
BUFFALO        RAIN      49  46  90 E12       29.98F FOG
DUNKIRK        RAIN      49  47  93 NE7       29.95F FOG
JAMESTOWN      CLOUDY    46  43  87 SE7       29.91F
WELLSVILLE     RAIN      46  44  93 SE8       29.97F FOG
ROCHESTER      LGT RAIN  49  46  90 E8        30.04F
PENN YAN       LGT RAIN  48  45  89 VRB5      30.05S FOG
$$

             KEY
       WCI = WIND CHILL INDEX
       VSB = VISIBILITY
       HX  = HEAT INDEX
$$




USA.gov is the U.S. government's official web portal to all federal, state and local government web resources and services.